CZ-1 DEB

Satellite information

Favourite Embed

Satellite Type and Status

DEBRISIN ORBIT

Key statistics

Satellite CZ-1 DEB at a glance.

Uptime

20323

Days in orbit

Revolutions

≈ 14.0

Per day

Orbit

LEO

Low Earth Orbit

Inclination

68.4

Latest

Satellite identification and parameters

Extended collection of information and parameters for CZ-1 DEB.

Object identification

Identified? True

Debris? True

Object name: CZ-1 DEB

International designator: 1970-034D

Object number (NORAD): 25882

Object ID (CCSDS): 25882

Country: PEOPLES REPUBLIC OF CHINA (PRC)

Current information (Y/N): Y

RCS size: SMALL

Orbital parameters

Period: 103.187 minutes

Inclination: 68.3734 deg

SMA: 7287.482 km

Apoapsis: 1398.556 km

Periapsis: 420.139 km

RAAN: 82.3993 deg

Eccentricy: 0.06712996

Argument of periapsis: 227.7986 deg

Mean anomaly: 126.4245 deg

Mean motion: 13.95521379 rev/day

Mean motion (dot): 0.00010929 rev/day2

B* drag term: 0.0010893164 1/REarth

Two-line elements (TLE)

Creation date: Dec. 13, 2025, 4:32 a.m.

Reference frame: TEME

Reference center: EARTH

Epoch: Dec. 13, 2025, 12:06 a.m. UTC

TLE line 0: 0 CZ-1 DEB

TLE line 1: 1 25882U 70034D 25347.00424922 .00010929 00000-0 10893-2 0 9997

TLE line 2: 2 25882 68.3734 82.3993 0671300 227.7986 126.4245 13.95521379296983

Live tracking on map

Real-time ground track for satellite CZ-1 DEB.

In-orbit conjunctions

A list of the most updated potential collisions computed for object CZ-1 DEB.

Target Orbit TCA Probability of collision Miss distance Type
COSMOS 1275 DEB LEO 2025-09-28 13:53:05 0.0001063821 435.0 (m) DEBRIS
DELTA 2 R/B(1) LEO 2025-04-14 05:10:33 0.00010383 220.0 (m) ROCKET BODY

Associated space launch

Dong Fang Hong 1 (DFH-1) was the first Chinese satellite. This was the first satellite launched by China on its own booster, making China the fifth nation to put a spacecraft into orbit using its own rocket. The satellite was developed under the direction of Tsien Hsue-Shen, dean of the Chinese Academy of Space Technology (CAST). The experimental satellite was a nearly spherically shaped symmetrical 72-faced polyhedron with a 1-meter diameter. It was battery-powered and carried a radio transmitter. The primary mission was to broadcast the song "Dong Fang Hong", paying tribute to Chairman Mao, and to announce the time. A total of five identical satellites were built to have backups in case of launch failures. The first satellite launched successfully.

CZ-1 DEB was lifted into orbit during the mission ‘Long March 1 | Dong Fang Hong 1’, on board a Long March 1 space rocket.

The launch took place on April 24, 1970, 1:35 p.m. from Launch Area 2A.

For more information about the launch, click the button.

Launch to space Long March 1 | Dong Fang Hong 1
Long March 1 | Dong Fang Hong 1

Agency: N/A

Status: Launch Successful

Launch date: April 24, 1970, 1:35 p.m. UTC

Rocket: Long March 1

Launch pad: Launch Area 2A

Location: Jiuquan Satellite Launch Center, People's Republic of China

...

Latest news about this satellite

There are no fresh news available about this satellite. Check back as we update our databases every day.


Newsletter sign-up

Weekly statistics, charts and insights to help you stay on top of the space industry.